Year,Month,Day,Hour,Minute,Value (Times are PST for temperature in C)
2016,08,24,00,00,12.70
2016,08,24,00,01,12.70
2016,08,24,00,02,12.60
2016,08,24,00,03,12.60
2016,08,24,00,04,12.60
2016,08,24,00,05,12.50
2016,08,24,00,06,12.50
2016,08,24,00,07,12.40
2016,08,24,00,08,12.40
2016,08,24,00,09,12.30
2016,08,24,00,10,12.30
2016,08,24,00,11,12.30
2016,08,24,00,12,12.30
2016,08,24,00,17,12.30
2016,08,24,00,18,12.40
2016,08,24,00,19,12.40
2016,08,24,00,20,12.40
2016,08,24,00,21,12.40
2016,08,24,00,22,12.40
2016,08,24,00,23,12.40
2016,08,24,00,24,12.40
2016,08,24,00,25,12.40
2016,08,24,00,26,12.40
2016,08,24,00,27,12.40
2016,08,24,00,28,12.40
2016,08,24,00,29,12.40
2016,08,24,00,30,12.50
2016,08,24,00,31,12.50
2016,08,24,00,32,12.50
2016,08,24,00,33,12.50
2016,08,24,00,34,12.50
2016,08,24,00,35,12.50
2016,08,24,00,36,12.40
2016,08,24,00,37,12.40
2016,08,24,00,38,12.30
2016,08,24,00,39,12.30
2016,08,24,00,40,12.40
2016,08,24,00,41,12.40
2016,08,24,00,42,12.40
2016,08,24,00,43,12.40
2016,08,24,00,44,12.40
2016,08,24,00,45,12.40
2016,08,24,00,46,12.40
2016,08,24,00,47,12.40
2016,08,24,00,48,12.40
2016,08,24,00,49,12.50
2016,08,24,00,50,12.60
2016,08,24,00,51,12.60
2016,08,24,00,52,12.70
2016,08,24,00,53,12.80
2016,08,24,00,54,12.80
2016,08,24,00,55,12.80
2016,08,24,00,56,12.80
2016,08,24,00,57,12.80
2016,08,24,00,58,12.80
2016,08,24,00,59,12.80
2016,08,24,01,00,12.80
2016,08,24,01,01,12.80
2016,08,24,01,02,12.80
2016,08,24,01,03,12.80
2016,08,24,01,04,12.80
2016,08,24,01,05,12.90
2016,08,24,01,06,12.90
2016,08,24,01,07,12.90
2016,08,24,01,08,12.90
2016,08,24,01,09,12.90
2016,08,24,01,10,12.90
2016,08,24,01,11,12.90
2016,08,24,01,12,13.00
2016,08,24,01,13,13.00
2016,08,24,01,14,13.00
2016,08,24,01,15,13.00
2016,08,24,01,16,13.00
2016,08,24,01,17,12.90
2016,08,24,01,18,12.90
2016,08,24,01,19,12.90
2016,08,24,01,20,12.90
2016,08,24,01,21,12.90
2016,08,24,01,22,12.90
2016,08,24,01,23,12.90
2016,08,24,01,24,13.00
2016,08,24,01,25,13.00
2016,08,24,01,26,13.10
2016,08,24,01,27,13.10
2016,08,24,01,28,13.20
2016,08,24,01,29,13.20
2016,08,24,01,30,13.20
2016,08,24,01,31,13.20
2016,08,24,01,32,13.20
2016,08,24,01,33,13.10
2016,08,24,01,34,13.10
2016,08,24,01,35,13.00
2016,08,24,01,36,13.00
2016,08,24,01,37,13.10
2016,08,24,01,38,13.10
2016,08,24,01,39,13.10
2016,08,24,01,40,13.10
2016,08,24,01,41,13.10
2016,08,24,01,42,13.10
2016,08,24,01,43,13.10
2016,08,24,01,44,13.00
2016,08,24,01,45,12.90
2016,08,24,01,46,12.80
2016,08,24,01,47,12.80
2016,08,24,01,48,12.70
2016,08,24,01,49,12.60
2016,08,24,01,50,12.60
2016,08,24,01,51,12.50
2016,08,24,01,52,12.50
2016,08,24,01,53,12.40
2016,08,24,01,54,12.40
2016,08,24,01,55,12.40
2016,08,24,01,56,12.30
2016,08,24,01,57,12.30
2016,08,24,01,58,12.30
2016,08,24,01,59,12.30
2016,08,24,02,00,12.30
2016,08,24,02,01,12.30
2016,08,24,02,02,12.30
2016,08,24,02,03,12.30
2016,08,24,02,04,12.30
2016,08,24,02,05,12.40
2016,08,24,02,06,12.40
2016,08,24,02,07,12.40
2016,08,24,02,08,12.40
2016,08,24,02,09,12.40
2016,08,24,02,10,12.40
2016,08,24,02,11,12.40
2016,08,24,02,12,12.40
2016,08,24,02,13,12.50
2016,08,24,02,14,12.40
2016,08,24,02,15,12.40
2016,08,24,02,16,12.40
2016,08,24,02,17,12.40
2016,08,24,02,18,12.40
2016,08,24,02,19,12.40
2016,08,24,02,20,12.40
2016,08,24,02,21,12.40
2016,08,24,02,22,12.40
2016,08,24,02,23,12.40
2016,08,24,02,24,12.40
2016,08,24,02,25,12.40
2016,08,24,02,26,12.40
2016,08,24,02,27,12.40
2016,08,24,02,28,12.40
2016,08,24,02,29,12.40
2016,08,24,02,30,12.40
2016,08,24,02,31,12.40
2016,08,24,02,32,12.30
2016,08,24,02,33,12.30
2016,08,24,02,34,12.30
2016,08,24,02,35,12.30
2016,08,24,02,36,12.30
2016,08,24,02,37,12.20
2016,08,24,02,38,12.20
2016,08,24,02,39,12.20
2016,08,24,02,40,12.20
2016,08,24,02,41,12.20
2016,08,24,02,42,12.20
2016,08,24,02,43,12.20
2016,08,24,02,44,12.20
2016,08,24,02,45,12.20
2016,08,24,02,46,12.30
2016,08,24,02,47,12.30
2016,08,24,02,48,12.30
2016,08,24,02,49,12.40
2016,08,24,02,50,12.40
2016,08,24,02,51,12.40
2016,08,24,02,52,12.40
2016,08,24,02,53,12.30
2016,08,24,02,54,12.30
2016,08,24,02,55,12.30
2016,08,24,02,56,12.30
2016,08,24,02,57,12.30
2016,08,24,02,58,12.30
2016,08,24,02,59,12.30
2016,08,24,03,00,12.30
2016,08,24,03,01,12.20
2016,08,24,03,02,12.20
2016,08,24,03,03,12.20
2016,08,24,03,04,12.20
2016,08,24,03,05,12.10
2016,08,24,03,06,12.10
2016,08,24,03,07,12.10
2016,08,24,03,08,12.10
2016,08,24,03,09,12.10
2016,08,24,03,10,12.10
2016,08,24,03,11,12.10
2016,08,24,03,12,12.10
2016,08,24,03,13,12.10
2016,08,24,03,14,12.10
2016,08,24,03,15,12.00
2016,08,24,03,16,12.00
2016,08,24,03,17,11.90
2016,08,24,03,18,11.90
2016,08,24,03,19,11.90
2016,08,24,03,20,11.90
2016,08,24,03,21,11.90
2016,08,24,03,22,11.90
2016,08,24,03,23,11.80
2016,08,24,03,24,11.80
2016,08,24,03,25,11.80
2016,08,24,03,26,11.80
2016,08,24,03,27,11.80
2016,08,24,03,28,11.80
2016,08,24,03,29,11.80
2016,08,24,03,30,11.80
2016,08,24,03,31,11.80
2016,08,24,03,32,11.80
2016,08,24,03,33,11.80
2016,08,24,03,34,11.80
2016,08,24,03,35,11.80
2016,08,24,03,36,11.80
2016,08,24,03,37,11.80
2016,08,24,03,38,11.80
2016,08,24,03,39,11.90
2016,08,24,03,40,12.00
2016,08,24,03,41,12.00
2016,08,24,03,42,12.10
2016,08,24,03,43,12.10
2016,08,24,03,44,12.00
2016,08,24,03,45,12.00
2016,08,24,03,46,12.00
2016,08,24,03,47,12.00
2016,08,24,03,48,12.10
2016,08,24,03,49,12.10
2016,08,24,03,50,12.00
2016,08,24,03,51,12.10
2016,08,24,03,52,12.10
2016,08,24,03,53,12.10
2016,08,24,03,54,12.20
2016,08,24,03,55,12.20
2016,08,24,03,56,12.30
2016,08,24,03,57,12.30
2016,08,24,03,58,12.40
2016,08,24,03,59,12.40
2016,08,24,04,00,12.40
2016,08,24,04,01,12.40
2016,08,24,04,02,12.40
2016,08,24,04,03,12.40
2016,08,24,04,04,12.30
2016,08,24,04,05,12.30
2016,08,24,04,06,12.20
2016,08,24,04,07,12.20
2016,08,24,04,08,12.10
2016,08,24,04,09,12.00
2016,08,24,04,10,12.00
2016,08,24,04,11,11.90
2016,08,24,04,12,11.90
2016,08,24,04,13,11.90
2016,08,24,04,14,11.80
2016,08,24,04,15,11.80
2016,08,24,04,16,11.80
2016,08,24,04,17,11.80
2016,08,24,04,18,11.70
2016,08,24,04,19,11.70
2016,08,24,04,20,11.60
2016,08,24,04,21,11.60
2016,08,24,04,22,11.50
2016,08,24,04,23,11.50
2016,08,24,04,24,11.40
2016,08,24,04,25,11.40
2016,08,24,04,26,11.40
2016,08,24,04,27,11.30
2016,08,24,04,28,11.30
2016,08,24,04,29,11.30
2016,08,24,04,30,11.30
2016,08,24,04,31,11.30
2016,08,24,04,32,11.20
2016,08,24,04,33,11.20
2016,08,24,04,34,11.20
2016,08,24,04,35,11.20
2016,08,24,04,36,11.20
2016,08,24,04,37,11.10
2016,08,24,04,38,11.10
2016,08,24,04,39,11.10
2016,08,24,04,40,11.20
2016,08,24,04,41,11.20
2016,08,24,04,42,11.20
2016,08,24,04,43,11.20
2016,08,24,04,44,11.30
2016,08,24,04,45,11.30
2016,08,24,04,46,11.30
2016,08,24,04,47,11.30
2016,08,24,04,48,11.30
2016,08,24,04,49,11.30
2016,08,24,04,50,11.20
2016,08,24,04,51,11.20
2016,08,24,04,52,11.20
2016,08,24,04,53,11.20
2016,08,24,04,54,11.20
2016,08,24,04,55,11.20
2016,08,24,04,56,11.20
2016,08,24,04,57,11.20
2016,08,24,04,58,11.20
2016,08,24,04,59,11.10
2016,08,24,05,00,11.10
2016,08,24,05,01,11.10
2016,08,24,05,02,11.00
2016,08,24,05,03,11.00
2016,08,24,05,04,11.10
2016,08,24,05,05,11.10
2016,08,24,05,06,11.10
2016,08,24,05,07,11.10
2016,08,24,05,08,11.10
2016,08,24,05,09,11.10
2016,08,24,05,10,11.10
2016,08,24,05,11,11.00
2016,08,24,05,12,11.00
2016,08,24,05,13,11.00
2016,08,24,05,14,10.90
2016,08,24,05,15,10.90
2016,08,24,05,16,10.90
2016,08,24,05,17,11.00
2016,08,24,05,18,11.00
2016,08,24,05,19,11.10
2016,08,24,05,20,11.10
2016,08,24,05,21,11.10
2016,08,24,05,22,11.10
2016,08,24,05,23,11.20
2016,08,24,05,24,11.20
2016,08,24,05,25,11.20
2016,08,24,05,26,11.20
2016,08,24,05,27,11.10
2016,08,24,05,28,11.10
2016,08,24,05,29,11.10
2016,08,24,05,30,11.10
2016,08,24,05,31,11.10
2016,08,24,05,32,11.10
2016,08,24,05,33,11.10
2016,08,24,05,34,11.10
2016,08,24,05,35,11.10
2016,08,24,05,36,11.10
2016,08,24,05,37,11.10
2016,08,24,05,38,11.10
2016,08,24,05,39,11.10
2016,08,24,05,40,11.10
2016,08,24,05,41,11.10
2016,08,24,05,42,11.10
2016,08,24,05,43,11.10
2016,08,24,05,44,11.10
2016,08,24,05,45,11.10
2016,08,24,05,46,11.10
2016,08,24,05,47,11.20
2016,08,24,05,48,11.20
2016,08,24,05,49,11.20
2016,08,24,05,50,11.20
2016,08,24,05,51,11.20
2016,08,24,05,52,11.20
2016,08,24,05,53,11.20
2016,08,24,05,54,11.10
2016,08,24,05,55,11.10
2016,08,24,05,56,11.10
2016,08,24,05,57,11.20
2016,08,24,05,58,11.20
2016,08,24,05,59,11.30
2016,08,24,06,00,11.30
2016,08,24,06,01,11.30
2016,08,24,06,02,11.30
2016,08,24,06,03,11.30
2016,08,24,06,04,11.30
2016,08,24,06,05,11.30
2016,08,24,06,06,11.30
2016,08,24,06,07,11.30
2016,08,24,06,08,11.20
2016,08,24,06,09,11.20
2016,08,24,06,10,11.20
2016,08,24,06,11,11.20
2016,08,24,06,12,11.20
2016,08,24,06,13,11.20
2016,08,24,06,14,11.20
2016,08,24,06,15,11.20
2016,08,24,06,16,11.20
2016,08,24,06,17,11.20
2016,08,24,06,18,11.20
2016,08,24,06,19,11.20
2016,08,24,06,20,11.20
2016,08,24,06,21,11.20
2016,08,24,06,22,11.20
2016,08,24,06,23,11.20
2016,08,24,06,24,11.20
2016,08,24,06,25,11.30
2016,08,24,06,26,11.30
2016,08,24,06,27,11.30
2016,08,24,06,28,11.30
2016,08,24,06,29,11.30
2016,08,24,06,30,11.20
2016,08,24,06,31,11.20
2016,08,24,06,32,11.10
2016,08,24,06,33,11.10
2016,08,24,06,34,11.10
2016,08,24,06,35,11.00
2016,08,24,06,36,11.00
2016,08,24,06,37,10.90
2016,08,24,06,38,10.90
2016,08,24,06,39,10.80
2016,08,24,06,40,10.80
2016,08,24,06,41,10.80
2016,08,24,06,42,10.80
2016,08,24,06,43,10.80
2016,08,24,06,44,10.70
2016,08,24,06,45,10.70
2016,08,24,06,46,10.70
2016,08,24,06,47,10.80
2016,08,24,06,48,10.80
2016,08,24,06,49,10.80
2016,08,24,06,50,10.90
2016,08,24,06,51,11.00
2016,08,24,06,52,11.00
2016,08,24,06,53,11.00
2016,08,24,06,54,11.00
2016,08,24,06,55,11.10
2016,08,24,06,56,11.10
2016,08,24,06,57,11.10
2016,08,24,06,58,11.00
2016,08,24,06,59,11.00
2016,08,24,07,00,11.00
2016,08,24,07,01,10.90
2016,08,24,07,05,11.00
2016,08,24,07,06,11.10
2016,08,24,07,07,11.10
2016,08,24,07,08,11.20
2016,08,24,07,09,11.20
2016,08,24,07,10,11.20
2016,08,24,07,11,11.20
2016,08,24,07,12,11.20
2016,08,24,07,13,11.20
2016,08,24,07,14,11.10
2016,08,24,07,15,11.10
2016,08,24,07,16,11.10
2016,08,24,07,17,11.00
2016,08,24,07,18,11.00
2016,08,24,07,19,11.00
2016,08,24,07,20,11.00
2016,08,24,07,21,11.10
2016,08,24,07,22,11.10
2016,08,24,07,23,11.10
2016,08,24,07,24,11.10
2016,08,24,07,25,11.10
2016,08,24,07,26,11.10
2016,08,24,07,27,11.10
2016,08,24,07,28,11.10
2016,08,24,07,29,11.10
2016,08,24,07,30,11.10
2016,08,24,07,31,11.10
2016,08,24,07,32,11.20
2016,08,24,07,33,11.20
2016,08,24,07,34,11.20
2016,08,24,07,35,11.30
2016,08,24,07,36,11.30
2016,08,24,07,37,11.30
2016,08,24,07,38,11.30
2016,08,24,07,39,11.30
2016,08,24,07,40,11.30
2016,08,24,07,41,11.30
2016,08,24,07,42,11.30
2016,08,24,07,43,11.30
2016,08,24,07,44,11.30
2016,08,24,07,45,11.30
2016,08,24,07,46,11.30
2016,08,24,07,47,11.30
2016,08,24,07,48,11.30
2016,08,24,07,49,11.40
2016,08,24,07,50,11.40
2016,08,24,07,51,11.50
2016,08,24,07,52,11.50
2016,08,24,07,53,11.60
2016,08,24,07,54,11.60
2016,08,24,07,55,11.70
2016,08,24,07,56,11.70
2016,08,24,07,57,11.80
2016,08,24,07,58,11.90
2016,08,24,07,59,11.90
2016,08,24,08,00,12.00
2016,08,24,08,01,12.10
2016,08,24,08,02,12.20
2016,08,24,08,03,12.30
2016,08,24,08,04,12.40
2016,08,24,08,05,12.50
2016,08,24,08,06,12.70
2016,08,24,08,07,12.80
2016,08,24,08,08,12.80
2016,08,24,08,09,12.90
2016,08,24,08,10,13.00
2016,08,24,08,11,13.10
2016,08,24,08,12,13.10
2016,08,24,08,13,13.20
2016,08,24,08,14,13.20
2016,08,24,08,15,13.30
2016,08,24,08,16,13.40
2016,08,24,08,17,13.50
2016,08,24,08,18,13.60
2016,08,24,08,19,13.70
2016,08,24,08,20,13.80
2016,08,24,08,21,13.80
2016,08,24,08,22,13.90
2016,08,24,08,23,13.90
2016,08,24,08,24,14.00
2016,08,24,08,25,14.10
2016,08,24,08,26,14.10
2016,08,24,08,27,14.20
2016,08,24,08,28,14.30
2016,08,24,08,29,14.30
2016,08,24,08,30,14.40
2016,08,24,08,31,14.40
2016,08,24,08,32,14.50
2016,08,24,08,33,14.70
2016,08,24,08,34,14.80
2016,08,24,08,35,14.80
2016,08,24,08,36,14.90
2016,08,24,08,37,15.00
2016,08,24,08,38,15.10
2016,08,24,08,39,15.20
2016,08,24,08,40,15.30
2016,08,24,08,41,15.30
2016,08,24,08,42,15.40
2016,08,24,08,43,15.50
2016,08,24,08,44,15.60
2016,08,24,08,45,15.60
2016,08,24,08,46,15.70
2016,08,24,08,47,15.70
2016,08,24,08,48,15.80
2016,08,24,08,49,15.80
2016,08,24,08,50,15.90
2016,08,24,08,51,15.90
2016,08,24,08,52,16.00
2016,08,24,08,53,16.10
2016,08,24,08,54,16.20
2016,08,24,08,55,16.30
2016,08,24,08,56,16.30
2016,08,24,08,57,16.40
2016,08,24,08,58,16.50
2016,08,24,08,59,16.60
2016,08,24,09,00,16.60
2016,08,24,09,01,16.70
2016,08,24,09,02,16.70
2016,08,24,09,03,16.80
2016,08,24,09,04,16.80
2016,08,24,09,05,16.90
2016,08,24,09,06,17.00
2016,08,24,09,07,17.00
2016,08,24,09,08,17.10
2016,08,24,09,09,17.10
2016,08,24,09,10,17.20
2016,08,24,09,11,17.20
2016,08,24,09,12,17.30
2016,08,24,09,13,17.40
2016,08,24,09,14,17.40
2016,08,24,09,15,17.50
2016,08,24,09,16,17.60
2016,08,24,09,17,17.60
2016,08,24,09,18,17.70
2016,08,24,09,19,17.80
2016,08,24,09,20,17.80
2016,08,24,09,21,17.90
2016,08,24,09,22,18.00
2016,08,24,09,23,18.00
2016,08,24,09,24,18.10
2016,08,24,09,25,18.10
2016,08,24,09,26,18.10
2016,08,24,09,27,18.20
2016,08,24,09,28,18.20
2016,08,24,09,29,18.30
2016,08,24,09,30,18.40
2016,08,24,09,31,18.40
2016,08,24,09,32,18.50
2016,08,24,09,33,18.60
2016,08,24,09,34,18.70
2016,08,24,09,35,18.80
2016,08,24,09,36,18.90
2016,08,24,09,37,19.00
2016,08,24,09,38,19.00
2016,08,24,09,39,19.10
2016,08,24,09,40,19.20
2016,08,24,09,41,19.30
2016,08,24,09,42,19.30
2016,08,24,09,43,19.40
2016,08,24,09,44,19.50
2016,08,24,09,45,19.60
2016,08,24,09,46,19.70
2016,08,24,09,47,19.80
2016,08,24,09,48,19.90
2016,08,24,09,49,20.00
2016,08,24,09,50,20.10
2016,08,24,09,51,20.20
2016,08,24,09,52,20.20
2016,08,24,09,53,20.30
2016,08,24,09,54,20.30
2016,08,24,09,55,20.30
2016,08,24,09,56,20.40
2016,08,24,09,57,20.40
2016,08,24,09,58,20.50
2016,08,24,09,59,20.60
2016,08,24,10,00,20.70
2016,08,24,10,01,20.80
2016,08,24,10,02,20.90
2016,08,24,10,03,20.90
2016,08,24,10,04,20.90
2016,08,24,10,05,20.90
2016,08,24,10,06,20.90
2016,08,24,10,07,21.00
2016,08,24,10,08,21.10
2016,08,24,10,09,21.20
2016,08,24,10,10,21.20
2016,08,24,10,11,21.30
2016,08,24,10,12,21.40
2016,08,24,10,13,21.50
2016,08,24,10,14,21.60
2016,08,24,10,15,21.70
2016,08,24,10,16,21.80
2016,08,24,10,17,21.90
2016,08,24,10,18,22.00
2016,08,24,10,19,22.10
2016,08,24,10,20,22.10
2016,08,24,10,21,22.10
2016,08,24,10,22,22.10
2016,08,24,10,23,22.10
2016,08,24,10,24,22.10
2016,08,24,10,25,22.00
2016,08,24,10,26,21.90
2016,08,24,10,27,21.90
2016,08,24,10,28,21.70
2016,08,24,10,29,21.60
2016,08,24,10,30,21.50
2016,08,24,10,31,21.40
2016,08,24,10,32,21.20
2016,08,24,10,33,21.10
2016,08,24,10,34,21.00
2016,08,24,10,35,20.90
2016,08,24,10,36,20.90
2016,08,24,10,37,20.90
2016,08,24,10,38,20.90
2016,08,24,10,39,20.90
2016,08,24,10,40,20.90
2016,08,24,10,41,21.00
2016,08,24,10,42,21.00
2016,08,24,10,43,21.10
2016,08,24,10,44,21.10
2016,08,24,10,45,21.10
2016,08,24,10,46,21.10
2016,08,24,10,47,21.10
2016,08,24,10,48,21.10
2016,08,24,10,49,21.10
2016,08,24,10,50,21.10
2016,08,24,10,51,21.10
2016,08,24,10,52,21.10
2016,08,24,10,53,21.20
2016,08,24,10,54,21.30
2016,08,24,10,55,21.30
2016,08,24,10,56,21.30
2016,08,24,10,57,21.30
2016,08,24,10,58,21.40
2016,08,24,10,59,21.50
2016,08,24,11,00,21.60
2016,08,24,11,01,21.70
2016,08,24,11,02,21.70
2016,08,24,11,03,21.70
2016,08,24,11,04,21.70
2016,08,24,11,05,21.60
2016,08,24,11,06,21.60
2016,08,24,11,07,21.60
2016,08,24,11,08,21.50
2016,08,24,11,09,21.50
2016,08,24,11,10,21.50
2016,08,24,11,11,21.50
2016,08,24,11,12,21.50
2016,08,24,11,13,21.60
2016,08,24,11,14,21.60
2016,08,24,11,15,21.70
2016,08,24,11,16,21.70
2016,08,24,11,17,21.80
2016,08,24,11,18,21.80
2016,08,24,11,19,21.90
2016,08,24,11,20,22.00
2016,08,24,11,21,22.10
2016,08,24,11,22,22.20
2016,08,24,11,23,22.40
2016,08,24,11,24,22.50
2016,08,24,11,25,22.60
2016,08,24,11,26,22.70
2016,08,24,11,27,22.80
2016,08,24,11,28,22.90
2016,08,24,11,29,23.00
2016,08,24,11,30,23.00
2016,08,24,11,31,23.10
2016,08,24,11,32,23.20
2016,08,24,11,33,23.30
2016,08,24,11,34,23.30
2016,08,24,11,35,23.30
2016,08,24,11,36,23.20
2016,08,24,11,37,23.20
2016,08,24,11,38,23.20
2016,08,24,11,39,23.10
2016,08,24,11,40,23.10
2016,08,24,11,41,23.10
2016,08,24,11,42,23.10
2016,08,24,11,43,23.10
2016,08,24,11,44,23.20
2016,08,24,11,45,23.20
2016,08,24,11,46,23.30
2016,08,24,11,47,23.30
2016,08,24,11,48,23.40
2016,08,24,11,49,23.50
2016,08,24,11,50,23.60
2016,08,24,11,51,23.70
2016,08,24,11,52,23.80
2016,08,24,11,53,23.80
2016,08,24,11,54,23.80
2016,08,24,11,55,23.80
2016,08,24,11,56,23.70
2016,08,24,11,57,23.60
2016,08,24,11,58,23.50
2016,08,24,11,59,23.40
2016,08,24,12,00,23.40
2016,08,24,12,01,23.30
2016,08,24,12,02,23.30
2016,08,24,12,03,23.20
2016,08,24,12,04,23.20
2016,08,24,12,05,23.20
2016,08,24,12,06,23.20
2016,08,24,12,07,23.20
2016,08,24,12,08,23.30
2016,08,24,12,09,23.30
2016,08,24,12,10,23.30
2016,08,24,12,11,23.30
2016,08,24,12,12,23.30
2016,08,24,12,13,23.30
2016,08,24,12,14,23.40
2016,08,24,12,15,23.40
2016,08,24,12,16,23.50
2016,08,24,12,17,23.60
2016,08,24,12,18,23.60
2016,08,24,12,19,23.70
2016,08,24,12,20,23.70
2016,08,24,12,21,23.70
2016,08,24,12,22,23.60
2016,08,24,12,23,23.50
2016,08,24,12,24,23.50
2016,08,24,12,25,23.40
2016,08,24,12,26,23.40
2016,08,24,12,27,23.40
2016,08,24,12,28,23.50
2016,08,24,12,29,23.50
2016,08,24,12,30,23.70
2016,08,24,12,31,23.80
2016,08,24,12,32,24.00
2016,08,24,12,33,24.20
2016,08,24,12,34,24.50
2016,08,24,12,35,24.60
2016,08,24,12,36,24.70
2016,08,24,12,37,24.90
2016,08,24,12,38,25.00
2016,08,24,12,39,24.90
2016,08,24,12,40,24.90
2016,08,24,12,41,24.80
2016,08,24,12,42,24.70
2016,08,24,12,43,24.70
2016,08,24,12,44,24.70
2016,08,24,12,45,24.70
2016,08,24,12,46,24.80
2016,08,24,12,47,24.90
2016,08,24,12,48,25.00
2016,08,24,12,49,25.00
2016,08,24,12,50,25.00
2016,08,24,12,51,25.10
2016,08,24,12,52,25.20
2016,08,24,12,53,25.30
2016,08,24,12,54,25.50
2016,08,24,12,55,25.60
2016,08,24,12,56,25.60
2016,08,24,12,57,25.50
2016,08,24,12,58,25.40
2016,08,24,12,59,25.30
2016,08,24,13,00,25.30
2016,08,24,13,01,25.30
2016,08,24,13,02,25.40
2016,08,24,13,03,25.50
2016,08,24,13,04,25.50
2016,08,24,13,05,25.50
2016,08,24,13,06,25.50
2016,08,24,13,07,25.50
2016,08,24,13,08,25.50
2016,08,24,13,09,25.50
2016,08,24,13,10,25.50
2016,08,24,13,11,25.40
2016,08,24,13,12,25.40
2016,08,24,13,13,25.30
2016,08,24,13,14,25.30
2016,08,24,13,15,25.20
2016,08,24,13,16,25.10
2016,08,24,13,17,25.00
2016,08,24,13,18,24.80
2016,08,24,13,19,24.70
2016,08,24,13,20,24.60
2016,08,24,13,21,24.60
2016,08,24,13,22,24.60
2016,08,24,13,23,24.60
2016,08,24,13,24,24.50
2016,08,24,13,25,24.50
2016,08,24,13,26,24.40
2016,08,24,13,27,24.40
2016,08,24,13,28,24.40
2016,08,24,13,29,24.40
2016,08,24,13,30,24.40
2016,08,24,13,31,24.50
2016,08,24,13,32,24.60
2016,08,24,13,33,24.70
2016,08,24,13,34,24.80
2016,08,24,13,35,24.80
2016,08,24,13,36,24.80
2016,08,24,13,37,24.80
2016,08,24,13,38,24.80
2016,08,24,13,39,24.70
2016,08,24,13,40,24.60
2016,08,24,13,41,24.60
2016,08,24,13,42,24.50
2016,08,24,13,43,24.40
2016,08,24,13,44,24.40
2016,08,24,13,45,24.40
2016,08,24,13,46,24.40
2016,08,24,13,47,24.30
2016,08,24,13,48,24.30
2016,08,24,13,49,24.40
2016,08,24,13,50,24.40
2016,08,24,13,51,24.50
2016,08,24,13,52,24.50
2016,08,24,13,53,24.70
2016,08,24,13,54,24.80
2016,08,24,13,55,24.90
2016,08,24,13,56,25.00
2016,08,24,13,57,25.10
2016,08,24,13,58,25.20
2016,08,24,13,59,25.30
2016,08,24,14,00,25.30
2016,08,24,14,01,25.40
2016,08,24,14,02,25.40
2016,08,24,14,03,25.50
2016,08,24,14,04,25.50
2016,08,24,14,05,25.40
2016,08,24,14,06,25.30
2016,08,24,14,07,25.10
2016,08,24,14,08,25.00
2016,08,24,14,09,24.80
2016,08,24,14,10,24.60
2016,08,24,14,11,24.60
2016,08,24,14,12,24.50
2016,08,24,14,13,24.50
2016,08,24,14,14,24.50
2016,08,24,14,15,24.60
2016,08,24,14,16,24.60
2016,08,24,14,17,24.70
2016,08,24,14,18,24.80
2016,08,24,14,19,24.90
2016,08,24,14,20,25.00
2016,08,24,14,21,25.10
2016,08,24,14,22,25.20
2016,08,24,14,23,25.30
2016,08,24,14,24,25.40
2016,08,24,14,25,25.50
2016,08,24,14,26,25.60
2016,08,24,14,27,25.80
2016,08,24,14,28,25.90
2016,08,24,14,29,26.10
2016,08,24,14,30,26.20
2016,08,24,14,31,26.30
2016,08,24,14,32,26.40
2016,08,24,14,33,26.60
2016,08,24,14,34,26.70
2016,08,24,14,35,26.80
2016,08,24,14,36,26.80
2016,08,24,14,37,26.80
2016,08,24,14,38,26.80
2016,08,24,14,39,26.80
2016,08,24,14,40,26.60
2016,08,24,14,41,26.50
2016,08,24,14,42,26.40
2016,08,24,14,43,26.30
2016,08,24,14,44,26.30
2016,08,24,14,45,26.30
2016,08,24,14,46,26.30
2016,08,24,14,47,26.30
2016,08,24,14,48,26.30
2016,08,24,14,49,26.30
2016,08,24,14,50,26.30
2016,08,24,14,51,26.30
2016,08,24,14,52,26.30
2016,08,24,14,53,26.30
2016,08,24,14,54,26.20
2016,08,24,14,55,26.10
2016,08,24,14,56,26.00
2016,08,24,14,57,26.00
2016,08,24,14,58,25.90
2016,08,24,14,59,25.90
2016,08,24,15,00,25.90
2016,08,24,15,01,26.00
2016,08,24,15,02,26.00
2016,08,24,15,03,26.00
2016,08,24,15,04,26.00
2016,08,24,15,05,25.80
2016,08,24,15,06,25.60
2016,08,24,15,07,25.50
2016,08,24,15,08,25.30
2016,08,24,15,09,25.30
2016,08,24,15,10,25.20
2016,08,24,15,11,25.20
2016,08,24,15,12,25.20
2016,08,24,15,13,25.30
2016,08,24,15,14,25.30
2016,08,24,15,15,25.40
2016,08,24,15,16,25.50
2016,08,24,15,17,25.60
2016,08,24,15,18,25.70
2016,08,24,15,19,25.80
2016,08,24,15,20,25.80
2016,08,24,15,21,25.90
2016,08,24,15,22,25.90
2016,08,24,15,23,25.90
2016,08,24,15,24,25.90
2016,08,24,15,25,26.00
2016,08,24,15,26,26.10
2016,08,24,15,27,26.00
2016,08,24,15,28,25.90
2016,08,24,15,29,25.80
2016,08,24,15,30,25.60
2016,08,24,15,31,25.40
2016,08,24,15,32,25.30
2016,08,24,15,33,25.30
2016,08,24,15,34,25.30
2016,08,24,15,35,25.30
2016,08,24,15,36,25.40
2016,08,24,15,37,25.50
2016,08,24,15,38,25.60
2016,08,24,15,39,25.70
2016,08,24,15,40,25.80
2016,08,24,15,41,25.90
2016,08,24,15,42,26.00
2016,08,24,15,43,26.10
2016,08,24,15,44,26.20
2016,08,24,15,45,26.20
2016,08,24,15,46,26.20
2016,08,24,15,47,26.10
2016,08,24,15,48,26.00
2016,08,24,15,49,25.90
2016,08,24,15,50,25.80
2016,08,24,15,51,25.70
2016,08,24,15,52,25.60
2016,08,24,15,53,25.60
2016,08,24,15,54,25.50
2016,08,24,15,55,25.50
2016,08,24,15,56,25.50
2016,08,24,15,57,25.60
2016,08,24,15,58,25.60
2016,08,24,15,59,25.70
2016,08,24,16,00,25.80
2016,08,24,16,01,25.90
2016,08,24,16,02,25.90
2016,08,24,16,03,25.90
2016,08,24,16,04,25.90
2016,08,24,16,05,25.90
2016,08,24,16,06,25.90
2016,08,24,16,07,25.90
2016,08,24,16,08,25.80
2016,08,24,16,09,25.70
2016,08,24,16,10,25.60
2016,08,24,16,11,25.40
2016,08,24,16,12,25.30
2016,08,24,16,13,25.20
2016,08,24,16,14,25.10
2016,08,24,16,15,25.10
2016,08,24,16,16,25.00
2016,08,24,16,17,25.00
2016,08,24,16,18,24.90
2016,08,24,16,19,24.90
2016,08,24,16,20,24.90
2016,08,24,16,21,24.80
2016,08,24,16,22,24.80
2016,08,24,16,23,24.80
2016,08,24,16,24,24.70
2016,08,24,16,25,24.70
2016,08,24,16,26,24.60
2016,08,24,16,27,24.60
2016,08,24,16,28,24.60
2016,08,24,16,29,24.50
2016,08,24,16,30,24.50
2016,08,24,16,31,24.50
2016,08,24,16,32,24.50
2016,08,24,16,33,24.50
2016,08,24,16,34,24.50
2016,08,24,16,35,24.60
2016,08,24,16,36,24.70
2016,08,24,16,37,24.80
2016,08,24,16,38,24.90
2016,08,24,16,39,25.00
2016,08,24,16,40,25.10
2016,08,24,16,41,25.20
2016,08,24,16,42,25.20
2016,08,24,16,43,25.20
2016,08,24,16,44,25.30
2016,08,24,16,45,25.30
2016,08,24,16,46,25.40
2016,08,24,16,47,25.40
2016,08,24,16,48,25.50
2016,08,24,16,49,25.60
2016,08,24,16,50,25.70
2016,08,24,16,51,25.70
2016,08,24,16,52,25.80
2016,08,24,16,53,25.80
2016,08,24,16,54,25.80
2016,08,24,16,55,25.80
2016,08,24,16,56,25.80
2016,08,24,16,57,25.80
2016,08,24,16,58,25.70
2016,08,24,16,59,25.70
2016,08,24,17,00,25.70
2016,08,24,17,01,25.60
2016,08,24,17,02,25.60
2016,08,24,17,03,25.50
2016,08,24,17,04,25.40
2016,08,24,17,05,25.40
2016,08,24,17,06,25.30
2016,08,24,17,07,25.20
2016,08,24,17,08,25.20
2016,08,24,17,09,25.10
2016,08,24,17,10,25.10
2016,08,24,17,11,25.10
2016,08,24,17,12,25.10
2016,08,24,17,13,25.10
2016,08,24,17,14,25.10
2016,08,24,17,15,25.10
2016,08,24,17,16,25.10
2016,08,24,17,17,25.10
2016,08,24,17,18,25.10
2016,08,24,17,19,25.10
2016,08,24,17,20,25.10
2016,08,24,17,21,25.00
2016,08,24,17,22,25.00
2016,08,24,17,23,24.90
2016,08,24,17,24,24.90
2016,08,24,17,25,24.90
2016,08,24,17,26,24.80